GW6839 Weather Reports


time (UTC)temp
C
wind
direction
speed
KPH
gust
KPH
rain 1hr
cm
rain 24hr
cm
rain mn
cm
humidity
%
barometer
mb
20260503180219 15 266 22.5 29.0 0.00 0.00 0.00 38 1009.5
20260503175715 16 244 16.1 29.0 0.00 0.00 0.00 39 1009.6
20260503175213 16 256 8.0 14.5 0.00 0.00 0.00 42 1009.5
20260503174709 16 249 14.5 29.0 0.00 0.00 0.00 41 1009.6
20260503174207 16 239 12.9 20.9 0.00 0.00 0.00 42 1009.7
20260503173702 15 240 22.5 30.6 0.00 0.00 0.00 40 1010.0
20260503173158 16 259 16.1 25.7 0.00 0.00 0.00 40 1009.9
20260503172655 15 255 8.0 14.5 0.00 0.00 0.00 43 1010.0
20260503172152 15 272 9.7 30.6 0.00 0.00 0.00 42 1010.1
20260503171649 15 255 20.9 27.4 0.00 0.00 0.00 42 1010.3
20260503171146 15 279 11.3 17.7 0.00 0.00 0.00 42 1010.2
20260503170643 15 254 8.0 14.5 0.00 0.00 0.00 39 1010.4
20260503170140 15 268 20.9 27.4 0.00 0.00 0.00 40 1010.3
20260503150531 13 239 19.3 30.6 0.00 0.00 0.00 40 1011.2
20260503130926 9 260 9.7 14.5 0.00 0.00 0.00 51 1011.9
20260503130424 8 272 9.7 14.5 0.00 0.00 0.00 52 1012.0
20260503110829 0 56 0.0 1.6 0.00 0.00 0.00 80 1012.4
20260503110326 0 57 0.0 1.6 0.00 0.00 0.00 80 1012.4
20260503100252 0 56 0.0 0.0 0.00 0.00 0.00 80 1013.1
20260503090211 0 48 0.0 0.0 0.00 0.00 0.00 81 1013.4
20260503081138 1 42 1.6 3.2 0.00 0.00 0.00 68 1013.5
20260503080634 2 60 0.0 0.0 0.00 0.00 0.00 68 1013.5
20260503080132 2 12 3.2 4.8 0.00 0.00 0.00 67 1013.7
20260503072609 2 107 3.2 4.8 0.00 0.00 0.00 65 1013.6
20260503072106 2 265 6.4 6.4 0.00 0.00 0.00 66 1013.7
20260503071602 2 356 3.2 6.4 0.00 0.00 0.00 66 1013.6
20260503071059 2 19 1.6 4.8 0.00 0.00 0.00 67 1013.6
20260503070555 2 355 3.2 4.8 0.00 0.00 0.00 67 1013.7
20260503055014 3 242 3.2 9.7 0.00 0.00 0.00 64 1014.1
20260503054510 3 243 4.8 6.4 0.00 0.00 0.00 65 1014.0
20260503054008 3 334 1.6 4.8 0.00 0.00 0.00 65 1014.1
20260503053506 2 348 1.6 3.2 0.00 0.00 0.00 66 1013.9
20260503053003 2 202 4.8 6.4 0.00 0.00 0.00 67 1014.1
20260503052500 2 40 0.0 3.2 0.00 0.00 0.00 67 1014.1
20260503051956 2 81 1.6 1.6 0.00 0.00 0.00 67 1014.0
20260503051452 2 46 0.0 0.0 0.00 0.00 0.00 67 1014.0
20260503050949 2 66 0.0 0.0 0.00 0.00 0.00 68 1014.1
20260503050445 2 47 0.0 0.0 0.00 0.00 0.00 69 1014.1
20260503045943 2 48 0.0 0.0 0.00 0.00 0.00 68 1014.1
20260503045440 2 51 0.0 0.0 0.00 0.00 0.00 68 1014.1
20260503044937 2 51 0.0 0.0 0.00 0.00 0.00 67 1014.4
20260503044433 2 52 0.0 0.0 0.00 0.00 0.00 68 1014.4
20260503043931 1 53 0.0 0.0 0.00 0.00 0.00 69 1014.4
20260503043427 1 52 0.0 0.0 0.00 0.00 0.00 68 1014.4
20260503042924 1 52 0.0 0.0 0.00 0.00 0.00 69 1014.4
20260503042421 1 52 0.0 0.0 0.00 0.00 0.00 68 1014.3
20260503041917 1 52 0.0 0.0 0.00 0.00 0.00 68 1014.4
20260503041414 1 52 0.0 0.0 0.00 0.00 0.00 68 1014.6
20260503040911 1 53 0.0 0.0 0.00 0.00 0.00 68 1014.5
20260503040409 2 53 0.0 0.0 0.00 0.00 0.00 67 1014.5
20260503035906 2 53 0.0 0.0 0.00 0.00 0.00 67 1014.6
20260503035403 1 53 0.0 0.0 0.00 0.00 0.00 67 1014.6
20260503034900 1 52 0.0 0.0 0.00 0.00 0.00 68 1014.5
20260503034357 1 53 0.0 0.0 0.00 0.00 0.00 68 1014.7
20260503033854 1 53 0.0 0.0 0.00 0.00 0.00 68 1014.6
20260503033352 1 53 0.0 0.0 0.00 0.00 0.00 68 1014.7
20260503032850 1 53 0.0 0.0 0.00 0.00 0.00 68 1014.8
20260503032348 1 53 0.0 0.0 0.00 0.00 0.00 69 1014.7
20260503031845 1 53 0.0 0.0 0.00 0.00 0.00 69 1014.9
20260503031343 1 53 0.0 0.0 0.00 0.00 0.00 69 1014.8
20260503030839 1 53 0.0 0.0 0.00 0.00 0.00 70 1014.8
20260503030336 1 53 0.0 0.0 0.00 0.00 0.00 72 1014.6
20260503025832 1 53 0.0 0.0 0.00 0.00 0.00 72 1014.8
20260503025330 1 53 0.0 0.0 0.00 0.00 0.00 73 1015.0
20260503024827 1 53 0.0 0.0 0.00 0.00 0.00 73 1015.0
20260503024323 1 53 0.0 0.0 0.00 0.00 0.00 73 1014.9
20260503023820 1 53 0.0 0.0 0.00 0.00 0.00 72 1014.9
20260503023318 1 53 0.0 0.0 0.00 0.00 0.00 71 1015.1
20260503022814 1 53 0.0 0.0 0.00 0.00 0.00 70 1015.1
20260503022314 1 53 0.0 0.0 0.00 0.00 0.00 69 1015.1
20260503021811 1 53 0.0 0.0 0.00 0.00 0.00 69 1015.2
20260503021307 1 53 0.0 0.0 0.00 0.00 0.00 70 1015.0
20260503020805 1 53 0.0 0.0 0.00 0.00 0.00 72 1015.0
20260503020303 1 53 0.0 0.0 0.00 0.00 0.00 73 1015.1
20260503015758 1 53 0.0 0.0 0.00 0.00 0.00 72 1015.1
20260503015256 1 53 0.0 0.0 0.00 0.00 0.00 70 1015.2
20260503014751 1 53 0.0 0.0 0.00 0.00 0.00 72 1015.2
20260503014249 1 53 0.0 0.0 0.00 0.00 0.00 72 1015.1
20260503013746 1 53 0.0 0.0 0.00 0.00 0.00 72 1015.2
20260503013244 2 53 0.0 0.0 0.00 0.00 0.00 70 1014.9
20260503012741 2 53 0.0 0.0 0.00 0.00 0.00 69 1015.1
20260503012238 2 53 0.0 0.0 0.00 0.00 0.00 68 1015.0
20260503011735 2 53 0.0 0.0 0.00 0.00 0.00 65 1015.0
20260503011232 2 53 0.0 0.0 0.00 0.00 0.00 62 1014.9
20260503010728 3 53 0.0 0.0 0.00 0.00 0.00 61 1015.0
20260503010225 3 53 0.0 0.0 0.00 0.00 0.00 61 1014.9
20260503005722 3 53 0.0 0.0 0.00 0.00 0.00 60 1015.1
20260503005220 4 53 0.0 0.0 0.00 0.00 0.00 58 1014.9
20260503004715 5 53 0.0 0.0 0.00 0.00 0.00 56 1014.9
20260503004214 5 53 0.0 0.0 0.00 0.00 0.00 55 1014.8
20260503003711 5 53 0.0 0.0 0.00 0.00 0.00 52 1014.8
20260503003208 6 53 0.0 0.0 0.00 0.00 0.00 50 1015.0
20260503002704 6 53 0.0 0.0 0.00 0.00 0.00 47 1014.7
20260503002201 7 53 0.0 0.0 0.00 0.00 0.00 45 1014.8
20260503001657 7 39 0.0 1.6 0.00 0.00 0.00 44 1014.7
20260503001154 7 319 3.2 3.2 0.00 0.00 0.00 41 1014.6
20260503000652 7 20 1.6 1.6 0.00 0.00 0.00 41 1014.9
20260503000149 8 338 1.6 4.8 0.00 0.00 0.00 41 1014.9
20260502235646 8 2 3.2 4.8 0.00 0.00 0.00 44 1015.0
20260502235144 8 270 4.8 9.7 0.00 0.00 0.00 42 1014.9
20260502234639 8 269 8.0 11.3 0.00 0.00 0.00 40 1014.9
20260502234137 8 278 6.4 6.4 0.00 0.00 0.00 41 1015.0
20260502233633 8 271 9.7 14.5 0.00 0.00 0.00 41 1014.8
20260502233130 8 49 1.6 3.2 0.00 0.00 0.00 42 1015.1
20260502232625 9 307 6.4 9.7 0.00 0.00 0.00 39 1015.0
20260502232123 9 67 0.0 1.6 0.00 0.00 0.00 40 1015.0
20260502231620 9 33 1.6 3.2 0.00 0.00 0.00 39 1015.0
20260502231118 8 359 3.2 9.7 0.00 0.00 0.00 41 1014.9
20260502230616 9 325 3.2 6.4 0.00 0.00 0.00 39 1015.1
20260502230114 9 30 6.4 6.4 0.00 0.00 0.00 41 1014.9
20260502225609 9 310 3.2 4.8 0.00 0.00 0.00 41 1015.0
20260502225107 8 294 6.4 9.7 0.00 0.00 0.00 42 1015.0
20260502224602 8 30 3.2 6.4 0.00 0.00 0.00 43 1015.0
20260502224100 7 268 9.7 14.5 0.00 0.00 0.00 45 1015.2
20260502223557 8 286 6.4 11.3 0.00 0.00 0.00 42 1015.1
20260502223056 7 326 8.0 11.3 0.00 0.00 0.00 42 1015.1
20260502222553 7 352 4.8 14.5 0.00 0.00 0.00 42 1015.2
20260502222049 8 245 11.3 12.9 0.00 0.00 0.00 42 1015.2
20260502221544 8 58 1.6 1.6 0.00 0.00 0.00 42 1015.2
20260502221042 8 16 1.6 3.2 0.00 0.00 0.00 40 1015.3
20260502220537 8 304 6.4 11.3 0.00 0.00 0.00 41 1015.4
20260502220035 8 357 4.8 11.3 0.00 0.00 0.00 44 1015.4
20260502215532 8 277 4.8 4.8 0.00 0.00 0.00 43 1015.5
20260502215029 8 14 6.4 14.5 0.00 0.00 0.00 43 1015.4
20260502214525 7 279 12.9 20.9 0.00 0.00 0.00 43 1015.5
20260502214023 7 305 1.6 6.4 0.00 0.00 0.00 44 1015.5
20260502213519 7 282 8.0 12.9 0.00 0.00 0.00 45 1015.5
20260502213018 7 105 1.6 14.5 0.00 0.00 0.00 44 1015.3
20260502212516 7 276 9.7 11.3 0.00 0.00 0.00 46 1015.4
20260502212014 7 270 11.3 12.9 0.00 0.00 0.00 45 1015.3
20260502211509 7 65 3.2 9.7 0.00 0.00 0.00 47 1015.3
20260502211007 7 20 3.2 9.7 0.00 0.00 0.00 47 1015.3
20260502210503 7 278 8.0 12.9 0.00 0.00 0.00 47 1015.3
20260502210000 7 41 1.6 4.8 0.00 0.00 0.00 44 1015.4
20260502205456 8 268 9.7 12.9 0.00 0.00 0.00 46 1015.4
20260502204954 8 34 1.6 3.2 0.00 0.00 0.00 45 1015.5
20260502204450 8 46 0.0 3.2 0.00 0.00 0.00 48 1015.4
20260502203948 7 282 6.4 9.7 0.00 0.00 0.00 47 1015.4
20260502203445 7 222 8.0 12.9 0.00 0.00 0.00 45 1015.4
20260502202942 7 274 12.9 14.5 0.00 0.00 0.00 45 1015.6
20260502202438 7 280 9.7 12.9 0.00 0.00 0.00 45 1015.4
20260502201937 7 249 8.0 9.7 0.00 0.00 0.00 47 1015.6
20260502201432 7 278 9.7 14.5 0.00 0.00 0.00 45 1015.6
20260502200929 7 244 3.2 14.5 0.00 0.00 0.00 50 1015.7
20260502200425 7 38 3.2 4.8 0.00 0.00 0.00 49 1015.8
20260502195923 7 47 3.2 4.8 0.00 0.00 0.00 47 1015.8
20260502195420 7 275 6.4 12.9 0.00 0.00 0.00 44 1015.9
20260502194916 7 257 14.5 16.1 0.00 0.00 0.00 46 1015.9
20260502194413 7 275 8.0 11.3 0.00 0.00 0.00 50 1016.1
20260502193909 7 270 9.7 14.5 0.00 0.00 0.00 47 1016.2
20260502193406 7 244 8.0 11.3 0.00 0.00 0.00 44 1016.1
20260502192901 7 265 14.5 16.1 0.00 0.00 0.00 44 1016.2
20260502192359 7 334 3.2 6.4 0.00 0.00 0.00 46 1016.1
20260502191856 7 279 6.4 9.7 0.00 0.00 0.00 45 1016.3
20260502191354 7 260 11.3 16.1 0.00 0.00 0.00 44 1016.2
20260502190851 8 324 6.4 11.3 0.00 0.00 0.00 44 1016.3
20260502190348 8 121 1.6 3.2 0.00 0.00 0.00 44 1016.3
20260502185844 7 312 6.4 11.3 0.00 0.00 0.00 48 1016.3
20260502185339 7 315 9.7 12.9 0.00 0.00 0.00 48 1016.5
20260502184837 7 240 11.3 17.7 0.00 0.00 0.00 47 1016.4
20260502184332 8 264 9.7 17.7 0.00 0.00 0.00 43 1016.2
20260502183829 7 338 4.8 4.8 0.00 0.00 0.00 48 1016.3
20260502183325 7 264 6.4 9.7 0.00 0.00 0.00 45 1016.3
20260502182820 8 47 1.6 12.9 0.00 0.00 0.00 44 1016.3
20260502182316 7 33 3.2 6.4 0.00 0.00 0.00 48 1016.5
20260502181813 7 13 4.8 6.4 0.00 0.00 0.00 48 1016.5
20260502181312 8 229 6.4 16.1 0.00 0.00 0.00 45 1016.5
20260502180809 7 42 3.2 9.7 0.00 0.00 0.00 51 1016.6